EZY5697 EDXW-EHAM

Flight info

Callsign EZY5697
Flight time 0h 48m
Altitude 32000
Route OLDIP1B/32 OLDIP DCT ROCZO DCT LAZOQ P174 KUBAT T200 BLUFA
Aircraft A20N/M-SDE2E3FGHIRWXY/LB1

Departure

Time 2026-04-30 20:05
Airport Westerland Sylt Airport (EDXW)

Arrival

Time 2026-04-30 20:54
Airport Amsterdam Airport Schiphol (EHAM)
Time Latitude Longitude Altitude Speed Heading
2026-04-30 19:44 54.91311 8.33116 29 ft 0 kts 270°
2026-04-30 19:54 54.91311 8.33127 29 ft 2 kts 270°
2026-04-30 19:55 54.91311 8.33153 29 ft 2 kts 270°
2026-04-30 19:55 54.91311 8.33179 29 ft 2 kts 267°
2026-04-30 19:55 54.91311 8.33202 29 ft 0 kts 270°
2026-04-30 19:55 54.91312 8.33211 29 ft 0 kts 306°
2026-04-30 19:56 54.91308 8.33216 29 ft 0 kts 356°
2026-04-30 19:56 54.91304 8.33216 29 ft 0 kts 33°
2026-04-30 19:56 54.91299 8.33208 29 ft 1 kts 33°
2026-04-30 19:56 54.91298 8.33208 29 ft 0 kts 33°
2026-04-30 19:59 54.91299 8.33209 29 ft 0 kts 27°
2026-04-30 19:59 54.91302 8.33206 29 ft 0 kts 322°
2026-04-30 19:59 54.91291 8.33191 29 ft 2 kts 197°
2026-04-30 20:00 54.91270 8.33181 30 ft 3 kts 191°
2026-04-30 20:00 54.91243 8.33177 30 ft 4 kts 181°
2026-04-30 20:00 54.91214 8.33176 31 ft 4 kts 180°
2026-04-30 20:00 54.91184 8.33177 31 ft 4 kts 179°
2026-04-30 20:01 54.91095 8.33178 32 ft 10 kts 180°
2026-04-30 20:01 54.91005 8.33135 32 ft 16 kts 206°
2026-04-30 20:01 54.90885 8.33172 32 ft 21 kts 156°
2026-04-30 20:02 54.90589 8.33243 29 ft 22 kts 176°
2026-04-30 20:02 54.90442 8.33311 28 ft 22 kts 153°
2026-04-30 20:03 54.90262 8.33715 27 ft 22 kts 104°
2026-04-30 20:03 54.90240 8.33966 28 ft 21 kts 96°
2026-04-30 20:03 54.90239 8.34207 30 ft 19 kts 79°
2026-04-30 20:03 54.90265 8.34435 31 ft 19 kts 81°
2026-04-30 20:04 54.90287 8.34657 32 ft 18 kts 81°
2026-04-30 20:04 54.90310 8.34872 32 ft 18 kts 79°
2026-04-30 20:04 54.90337 8.35072 35 ft 16 kts 61°
2026-04-30 20:05 54.90535 8.35024 35 ft 46 kts 325°
2026-04-30 20:05 54.91024 8.34416 32 ft 127 kts 324°
2026-04-30 20:05 54.92760 8.32231 1132 ft 166 kts 326°
2026-04-30 20:06 54.93613 8.31207 1824 ft 167 kts 326°
2026-04-30 20:06 54.94635 8.29982 2425 ft 182 kts 326°
2026-04-30 20:06 54.95651 8.28746 2959 ft 198 kts 326°
2026-04-30 20:06 54.96867 8.27259 3485 ft 221 kts 325°
2026-04-30 20:07 54.98063 8.25547 3859 ft 228 kts 306°
2026-04-30 20:07 54.98542 8.23002 4052 ft 227 kts 262°
2026-04-30 20:07 54.96971 8.18390 5684 ft 230 kts 230°
2026-04-30 20:08 54.95994 8.16179 6565 ft 235 kts 231°
2026-04-30 20:08 54.94922 8.14026 7312 ft 243 kts 213°
2026-04-30 20:08 54.93362 8.13009 7944 ft 251 kts 179°
2026-04-30 20:08 54.91718 8.13582 8587 ft 258 kts 149°
2026-04-30 20:09 54.90286 8.15508 9260 ft 269 kts 136°
2026-04-30 20:09 54.88878 8.17612 10057 ft 277 kts 138°
2026-04-30 20:09 54.86073 8.21623 12411 ft 257 kts 138°
2026-04-30 20:10 54.83419 8.25382 14281 ft 251 kts 138°
2026-04-30 20:10 54.82014 8.27202 14751 ft 268 kts 143°
2026-04-30 20:10 54.80422 8.28986 15169 ft 286 kts 144°
2026-04-30 20:11 54.77004 8.32717 16210 ft 310 kts 144°
2026-04-30 20:11 54.75226 8.34650 16946 ft 314 kts 144°
2026-04-30 20:11 54.73376 8.36662 17693 ft 318 kts 144°
2026-04-30 20:12 54.69688 8.40808 19083 ft 325 kts 136°
2026-04-30 20:12 54.68211 8.43615 19779 ft 323 kts 120°
2026-04-30 20:12 54.67244 8.46879 20437 ft 324 kts 110°
2026-04-30 20:13 54.66504 8.50062 20997 ft 328 kts 108°
2026-04-30 20:13 54.65615 8.53989 21664 ft 333 kts 109°
2026-04-30 20:13 54.64611 8.57293 22201 ft 342 kts 125°
2026-04-30 20:13 54.62866 8.60099 22628 ft 357 kts 146°
2026-04-30 20:14 54.60580 8.61569 22891 ft 375 kts 170°
2026-04-30 20:14 54.58051 8.61388 23144 ft 391 kts 194°
2026-04-30 20:14 54.55692 8.59486 23403 ft 403 kts 215°
2026-04-30 20:14 54.53582 8.56613 24032 ft 403 kts 220°
2026-04-30 20:15 54.51514 8.53616 25039 ft 395 kts 220°
2026-04-30 20:15 54.49526 8.50746 25993 ft 387 kts 220°
2026-04-30 20:15 54.47523 8.47893 26414 ft 394 kts 219°
2026-04-30 20:15 54.45429 8.44949 26647 ft 405 kts 219°
2026-04-30 20:16 54.43296 8.41982 26875 ft 416 kts 219°
2026-04-30 20:16 54.41094 8.38940 27096 ft 426 kts 219°
2026-04-30 20:16 54.38937 8.35976 27300 ft 435 kts 219°
2026-04-30 20:16 54.36489 8.32624 27517 ft 444 kts 219°
2026-04-30 20:17 54.34110 8.29373 27786 ft 451 kts 219°
2026-04-30 20:17 54.31754 8.26162 28265 ft 452 kts 219°
2026-04-30 20:17 54.29328 8.22860 28898 ft 450 kts 219°
2026-04-30 20:17 54.26965 8.19649 29524 ft 448 kts 219°
2026-04-30 20:18 54.24596 8.16434 30115 ft 446 kts 219°
2026-04-30 20:18 54.22350 8.13389 30648 ft 445 kts 219°
2026-04-30 20:18 54.19991 8.10196 31149 ft 445 kts 219°
2026-04-30 20:18 54.17706 8.07108 31563 ft 446 kts 219°
2026-04-30 20:19 54.15319 8.03887 31959 ft 447 kts 219°
2026-04-30 20:19 54.12937 8.00678 32324 ft 449 kts 219°
2026-04-30 20:19 54.10571 7.97495 32417 ft 451 kts 219°
2026-04-30 20:20 54.05905 7.91232 32426 ft 451 kts 219°
2026-04-30 20:20 54.01271 7.85030 32426 ft 451 kts 219°
2026-04-30 20:21 53.96523 7.78693 32427 ft 451 kts 219°
2026-04-30 20:21 53.91916 7.72562 32426 ft 450 kts 219°
2026-04-30 20:22 53.87317 7.66475 32226 ft 451 kts 219°
2026-04-30 20:22 53.85233 7.63733 31997 ft 449 kts 218°
2026-04-30 20:22 53.82753 7.60473 31727 ft 446 kts 218°
2026-04-30 20:22 53.80339 7.57296 31457 ft 444 kts 218°
2026-04-30 20:23 53.78023 7.54251 31204 ft 442 kts 218°
2026-04-30 20:23 53.75699 7.51196 30935 ft 441 kts 218°
2026-04-30 20:23 53.73344 7.48102 30592 ft 439 kts 218°
2026-04-30 20:23 53.70976 7.44996 30322 ft 443 kts 218°
2026-04-30 20:24 53.68654 7.41954 30064 ft 444 kts 218°
2026-04-30 20:24 53.66275 7.38841 29795 ft 445 kts 218°
2026-04-30 20:24 53.63861 7.35688 29523 ft 445 kts 218°
2026-04-30 20:24 53.61569 7.32692 29271 ft 445 kts 217°
2026-04-30 20:25 53.56823 7.26486 28742 ft 446 kts 217°
2026-04-30 20:25 53.54502 7.23462 28484 ft 447 kts 217°
2026-04-30 20:26 53.49654 7.17169 27950 ft 447 kts 217°
2026-04-30 20:26 53.44915 7.11043 27429 ft 447 kts 217°
2026-04-30 20:26 53.42641 7.08110 27183 ft 448 kts 217°
2026-04-30 20:27 53.37796 7.01874 26652 ft 448 kts 217°
2026-04-30 20:27 53.32938 6.95643 26422 ft 448 kts 217°
2026-04-30 20:28 53.28140 6.89505 26405 ft 449 kts 217°
2026-04-30 20:28 53.23421 6.83485 25799 ft 445 kts 216°
2026-04-30 20:29 53.18789 6.77589 25004 ft 424 kts 216°
2026-04-30 20:30 53.12148 6.69167 23447 ft 411 kts 216°
2026-04-30 20:30 53.05633 6.60938 21849 ft 403 kts 215°
2026-04-30 20:31 52.99216 6.52862 20316 ft 396 kts 214°
2026-04-30 20:32 52.92918 6.44974 18804 ft 388 kts 214°
2026-04-30 20:32 52.88716 6.39739 17768 ft 383 kts 214°
2026-04-30 20:33 52.86709 6.37253 17292 ft 381 kts 214°
2026-04-30 20:33 52.82883 6.31379 16309 ft 379 kts 225°
2026-04-30 20:33 52.81343 6.28111 15840 ft 378 kts 231°
2026-04-30 20:34 52.78435 6.21166 14863 ft 373 kts 232°
2026-04-30 20:34 52.75576 6.14306 13898 ft 367 kts 231°
2026-04-30 20:35 52.74131 6.10867 13637 ft 365 kts 231°
2026-04-30 20:35 52.72686 6.07443 13388 ft 365 kts 231°
2026-04-30 20:35 52.69897 6.00860 12913 ft 362 kts 231°
2026-04-30 20:36 52.68465 5.97487 12669 ft 361 kts 231°
2026-04-30 20:36 52.67076 5.94214 12432 ft 359 kts 231°
2026-04-30 20:36 52.64293 5.87678 11953 ft 357 kts 231°
2026-04-30 20:37 52.62966 5.84565 11724 ft 356 kts 231°
2026-04-30 20:37 52.61604 5.81381 11488 ft 354 kts 231°
2026-04-30 20:37 52.60265 5.78250 11233 ft 353 kts 231°
2026-04-30 20:37 52.58998 5.74870 10968 ft 355 kts 242°
2026-04-30 20:38 52.58098 5.71284 10725 ft 356 kts 247°
2026-04-30 20:38 52.57250 5.67455 10483 ft 354 kts 248°
2026-04-30 20:38 52.56429 5.63753 10238 ft 353 kts 247°
2026-04-30 20:39 52.54743 5.56453 9981 ft 352 kts 246°
2026-04-30 20:39 52.53874 5.52803 9878 ft 351 kts 246°
2026-04-30 20:39 52.53003 5.49180 9724 ft 350 kts 245°
2026-04-30 20:40 52.51248 5.41945 9504 ft 348 kts 245°
2026-04-30 20:40 52.50418 5.38544 9374 ft 347 kts 245°
2026-04-30 20:40 52.49525 5.34891 9244 ft 346 kts 245°
2026-04-30 20:41 52.47767 5.27694 9074 ft 344 kts 245°
2026-04-30 20:41 52.46897 5.24146 8956 ft 344 kts 245°
2026-04-30 20:41 52.46028 5.20608 8823 ft 344 kts 245°
2026-04-30 20:41 52.45158 5.17079 8691 ft 343 kts 244°
2026-04-30 20:42 52.44312 5.13650 8595 ft 343 kts 244°
2026-04-30 20:42 52.43416 5.10029 8450 ft 342 kts 244°
2026-04-30 20:42 52.41704 5.03126 8182 ft 340 kts 244°
2026-04-30 20:43 52.40830 4.99606 8080 ft 339 kts 244°
2026-04-30 20:43 52.39952 4.96082 7923 ft 338 kts 244°
2026-04-30 20:43 52.39119 4.92736 7796 ft 337 kts 244°
2026-04-30 20:44 52.37419 4.85913 7367 ft 309 kts 244°
2026-04-30 20:44 52.36709 4.83061 7209 ft 290 kts 244°
2026-04-30 20:44 52.35310 4.77461 6818 ft 257 kts 243°
2026-04-30 20:45 52.33989 4.72242 6327 ft 254 kts 243°
2026-04-30 20:45 52.33335 4.69662 6068 ft 252 kts 243°
2026-04-30 20:45 52.32680 4.67077 5808 ft 251 kts 243°
2026-04-30 20:46 52.30741 4.59409 5032 ft 247 kts 242°
2026-04-30 20:46 52.30108 4.56914 4772 ft 245 kts 242°
2026-04-30 20:47 52.28831 4.51891 4281 ft 243 kts 242°
2026-04-30 20:47 52.28196 4.49395 4025 ft 242 kts 242°
2026-04-30 20:48 52.26454 4.45132 3461 ft 222 kts 203°
2026-04-30 20:48 52.25113 4.44405 3217 ft 209 kts 179°
2026-04-30 20:48 52.23798 4.44618 2982 ft 199 kts 158°
2026-04-30 20:48 52.22551 4.45704 2705 ft 197 kts 139°
2026-04-30 20:49 52.21764 4.47194 2613 ft 195 kts 122°
2026-04-30 20:49 52.20880 4.51179 2462 ft 201 kts 102°
2026-04-30 20:50 52.21846 4.55535 2331 ft 216 kts 63°
2026-04-30 20:50 52.22697 4.57534 2247 ft 217 kts 63°
2026-04-30 20:50 52.23468 4.59433 2009 ft 215 kts 65°
2026-04-30 20:50 52.24263 4.61497 1705 ft 208 kts 66°
2026-04-30 20:51 52.24979 4.63389 1433 ft 194 kts 65°
2026-04-30 20:51 52.26197 4.66578 1051 ft 150 kts 66°
2026-04-30 20:51 52.26703 4.67911 827 ft 136 kts 65°
2026-04-30 20:52 52.27174 4.69156 646 ft 130 kts 65°
2026-04-30 20:52 52.27623 4.70340 499 ft 130 kts 64°
2026-04-30 20:52 52.28555 4.72795 167 ft 123 kts 62°
2026-04-30 20:53 52.28976 4.73893 35 ft 113 kts 62°
2026-04-30 20:53 52.29333 4.74854 0 ft 90 kts 55°
2026-04-30 20:53 52.29569 4.75446 -3 ft 52 kts 58°
2026-04-30 20:54 52.29789 4.75808 -4 ft 14 kts 30°
2026-04-30 20:54 52.29882 4.75881 -2 ft 14 kts 26°
2026-04-30 20:54 52.29948 4.75950 -1 ft 6 kts 25°
2026-04-30 20:55 52.30030 4.75929 0 ft 6 kts 314°
2026-04-30 20:55 52.30059 4.75864 0 ft 8 kts 319°
2026-04-30 20:55 52.30110 4.75804 1 ft 8 kts 322°
2026-04-30 20:56 52.30203 4.75727 5 ft 6 kts 326°
2026-04-30 20:56 52.30216 4.75694 6 ft 0 kts 263°
2026-04-30 20:56 52.30205 4.75670 6 ft 2 kts 239°
2026-04-30 20:57 52.30196 4.75648 6 ft 0 kts 238°